TimeCDT,TemperatureF,Dew PointF,Humidity,Sea Level PressureIn,VisibilityMPH,Wind Direction,Wind SpeedMPH,Gust SpeedMPH,PrecipitationIn,Events,Conditions,WindDirDegrees,DateUTC
12:53 AM,68.0,42.1,39,30.09,10.0,South,5.8,-,N/A,,Clear,170,2011-10-05 05:53:00
2:53 AM,64.0,43.0,46,30.08,10.0,ESE,3.5,-,N/A,,Scattered Clouds,110,2011-10-05 07:53:00
3:53 AM,64.0,44.1,48,30.07,10.0,Calm,Calm,-,N/A,,Scattered Clouds,0,2011-10-05 08:53:00
4:53 AM,61.0,44.1,54,30.08,10.0,ESE,3.5,-,N/A,,Mostly Cloudy,120,2011-10-05 09:53:00
5:53 AM,60.8,44.6,55,30.12,10.0,SE,4.6,-,N/A,,Mostly Cloudy,140,2011-10-05 10:53:00
6:53 AM,60.1,46.0,60,30.12,10.0,East,3.5,-,N/A,,Mostly Cloudy,100,2011-10-05 11:53:00
7:53 AM,59.0,48.0,67,30.12,10.0,ESE,4.6,-,N/A,,Mostly Cloudy,120,2011-10-05 12:53:00
8:53 AM,66.0,51.1,59,30.14,10.0,SSE,5.8,-,N/A,,Mostly Cloudy,160,2011-10-05 13:53:00
9:53 AM,71.1,55.9,59,30.13,10.0,SSW,10.4,-,N/A,,Mostly Cloudy,200,2011-10-05 14:53:00
10:53 AM,77.0,51.1,40,30.12,10.0,South,15.0,23.0,N/A,,Mostly Cloudy,170,2011-10-05 15:53:00
11:53 AM,81.0,46.9,30,30.10,10.0,South,16.1,24.2,N/A,,Mostly Cloudy,170,2011-10-05 16:53:00
12:53 PM,82.9,46.9,28,30.08,10.0,SSE,16.1,25.3,N/A,,Mostly Cloudy,160,2011-10-05 17:53:00
1:53 PM,84.0,44.1,25,30.05,10.0,SSE,13.8,-,N/A,,Mostly Cloudy,160,2011-10-05 18:53:00
2:53 PM,84.0,43.0,24,30.01,10.0,South,15.0,28.8,N/A,,Mostly Cloudy,170,2011-10-05 19:53:00
3:53 PM,84.0,41.0,22,29.99,10.0,SSE,12.7,-,N/A,,Mostly Cloudy,150,2011-10-05 20:53:00
4:53 PM,84.9,39.9,20,29.96,10.0,SE,16.1,25.3,N/A,,Mostly Cloudy,140,2011-10-05 21:53:00
5:53 PM,84.2,37.4,19,29.98,10.0,SE,16.1,-,N/A,,Mostly Cloudy,130,2011-10-05 22:53:00
6:53 PM,81.0,39.0,22,29.96,10.0,ESE,10.4,-,N/A,,Mostly Cloudy,120,2011-10-05 23:53:00
7:53 PM,75.0,41.0,29,29.97,10.0,SE,8.1,-,N/A,,Mostly Cloudy,130,2011-10-06 00:53:00
8:53 PM,73.0,41.0,31,29.98,10.0,ESE,8.1,-,N/A,,Scattered Clouds,120,2011-10-06 01:53:00
9:53 PM,73.0,39.9,30,29.99,10.0,ESE,6.9,-,N/A,,Partly Cloudy,120,2011-10-06 02:53:00
10:53 PM,72.0,41.0,33,29.98,10.0,SE,9.2,-,N/A,,Scattered Clouds,130,2011-10-06 03:53:00
11:53 PM,75.0,43.0,32,29.98,10.0,SSE,11.5,-,N/A,,Mostly Cloudy,150,2011-10-06 04:53:00